Location: Riverview Farm Park
(37.0930°N, 76.5291°W)
Time: 22:12:51
(UTC-04:00)

Envisat - Visible Passes

Search period start: 19 June 2018 00:00
Search period end: 29 June 2018 00:00
Orbit: 764 x 766 km, 98.2° (Epoch: 19 June)

Date Brightness Start Highest point End Pass type
(mag) Time Alt. Az. Time Alt. Az. Time Alt. Az.
20 Jun 5.1 21:20:22 10° SSW 21:24:28 25° W 21:28:36 10° NW visible
22 Jun 5.7 21:47:51 10° WSW 21:50:16 13° W 21:52:42 10° WNW visible
23 Jun 4.8 21:08:46 10° SSW 21:13:15 31° W 21:17:45 10° NW visible
25 Jun 5.5 21:35:41 10° SW 21:39:00 17° W 21:42:20 10° NW visible
26 Jun 4.4 20:57:17 10° SSW 21:02:02 40° W 21:06:49 10° NNW visible
28 Jun 5.3 21:23:50 10° SW 21:27:45 22° W 21:31:41 10° NW visible
